Flag for U.S.A. Weather past 2 weeks in Bloomington, Illinois, U.S.A.

Now
70 °F

Partly sunny.


Feels Like: 74 °F
Forecast: 58 / 73 °F
Wind: 18 mph from Northeast

Location: Bloomington / Normal

Current Time: Jul 7, 2015 at 3:07:00 PM

Latest Report: Jul 7, 2015 at 1:56 PM


Visibility: 10 mi

Pressure: 30.00 "Hg

Humidity: 70%

Dew point: 60 °F

Location of BloomingtonLocation

Historic Weather in Bloomington — Graph

°F

Bloomington temperature yesterday

Maximum temperature yesterday: 85 °F (at 1:56 PM)
Minimum temperature yesterday: 65 °F (at 4:56 AM)
Average temperature yesterday: 76 °F

Past Weeks' High & Low Weather Summary

 TemperatureHumidityPressure
High86 °F (Jun 22, 3:56 PM)100% (Jun 24, 10:56 PM)30.22 "Hg (Jun 24, 10:56 PM)
Low56 °F (Jul 2, 5:56 AM)44% (Jun 23, 5:56 PM)29.73 "Hg (Jun 29, 3:56 AM)
Average71 °F80%29.94 "Hg
* Reported Jun 22 1:56 PM — Jul 7 1:56 PM, Bloomington, Weather by CustomWeather, © 2015

Note: Actual official high and low records may vary slightly from our data, if they occured in-between our weather recording intervals... More about our weather records

Advertising

Bloomington weather history for previous 24 hours

 ConditionsComfort  
Time TempWeatherWind HumidityBarometerVisibility
1:56 PM
Tue, Jul 7
70 °FPartly sunny.18 mph70%30.00 "Hg10 mi
12:56 PM67 °FPartly sunny.18 mph78%29.98 "Hg10 mi
11:56 AM62 °FPartly sunny.20 mph93%29.98 "Hg9 mi
10:56 AM62 °FLight rain. Fog.18 mph97%29.96 "Hg1 mi
9:56 AM64 °FLight rain. Fog.16 mph97%29.94 "Hg3 mi
8:56 AM66 °FLight rain. Fog.14 mph97%29.91 "Hg3 mi
7:56 AM67 °FPartly sunny.15 mph100%29.88 "Hg9 mi
6:56 AM72 °FPartly sunny.3 mph100%29.84 "Hg10 mi
5:56 AM72 °FHeavy rain. Fog.8 mph100%29.87 "Hg2 mi
4:56 AM72 °FLight rain. Overcast.7 mph100%29.85 "Hg10 mi
3:56 AM72 °FLight rain. Passing clouds.5 mph100%29.83 "Hg8 mi
2:56 AM72 °FLight rain. Fog.No wind96%29.84 "Hg5 mi
1:56 AM72 °FRain. Fog.5 mph96%29.85 "Hg3 mi
12:56 AM77 °FLight rain. Mostly cloudy.12 mph90%29.84 "Hg10 mi
11:56 PM
Mon, Jul 6
77 °FClear.17 mph90%29.83 "Hg10 mi
10:56 PM76 °FPassing clouds.13 mph90%29.85 "Hg10 mi
9:56 PM76 °FClear.12 mph90%29.87 "Hg10 mi
8:56 PM78 °FSunny.13 mph85%29.87 "Hg10 mi
7:56 PM79 °FSunny.14 mph76%29.87 "Hg10 mi
6:56 PM83 °FPassing clouds.13 mph82%29.85 "Hg9 mi
5:56 PM84 °FScattered clouds.17 mph80%29.85 "Hg7 mi
4:56 PM84 °FScattered clouds.18 mph82%29.87 "Hg10 mi
4:04 PM81 °FThunderstorms. Fog.9 mph84%29.93 "Hg2 mi
3:56 PM78 °FThunderstorms. Partly sunny.6 mph85%29.91 "Hg3 mi
Weather by CustomWeather, © 2015

See weather overviewHow to use our weather pages